Torna al catalogo

STARLINK-36499

AttivoComunicazioniVLEO
NORAD 67359·PAYLOAD·🇺🇸 United States

Lanciato Jan 9, 2026 da Cape Canaveral Space Force Station

Loading…

Prossimi Passaggi (prossime 24 ore)

TLE

AggiornatoSource: CelesTrak SupGP

Epoca: Sep 15, 2026, 02:58 UTC

1 67359C 26003AB  26258.12409722  .00052611  00000+0  19101-2 0  2587
2 67359  43.0016 237.6668 0001134 277.8569 330.7508 15.27474851    18

Traccia STARLINK-36499 in tempo reale con AllMySat

Download on the App Store